Hourly Weather Adasevschina

Today, 23 April, Friday

Time Temperature Precipitation Wind Pressure Humidity
00:00 +2°C° 0 mm 3 mps 741 mmHg 81%
01:00 +1°C° 0 mm 3 mps 741 mmHg 83%
02:00 +1°C° 0 mm 3 mps 741 mmHg 86%
03:00 0°C° 0 mm 3 mps 741 mmHg 87%
04:00 0°C° 0 mm 3 mps 741 mmHg 88%
05:00 -1°C° 0 mm 4 mps 742 mmHg 90%
06:00 -1°C° 0 mm 4 mps 742 mmHg 84%
07:00 0°C° 0 mm 5 mps 742 mmHg 79%
08:00 +1°C° 0 mm 6 mps 742 mmHg 74%
09:00 +1°C° 0 mm 6 mps 742 mmHg 73%
10:00 +1°C° 0 mm 6 mps 743 mmHg 72%
11:00 +2°C° 0 mm 6 mps 743 mmHg 71%
12:00 +3°C° 0.2 mm 5 mps 743 mmHg 67%
13:00 +5°C° 0.2 mm 5 mps 743 mmHg 62%
14:00 +6°C° 0.2 mm 5 mps 742 mmHg 57%
15:00 +5°C° 0.4 mm 5 mps 742 mmHg 60%
16:00 +5°C° 0.4 mm 5 mps 742 mmHg 62%
17:00 +5°C° 0.4 mm 5 mps 742 mmHg 65%
18:00 +3°C° 0.1 mm 5 mps 742 mmHg 69%
19:00 +3°C° 0.1 mm 4 mps 743 mmHg 73%
20:00 +1°C° 0.1 mm 4 mps 743 mmHg 77%
21:00 0°C° 0 mm 4 mps 743 mmHg 80%
22:00 -1°C° 0 mm 4 mps 743 mmHg 83%
23:00 -1°C° 0 mm 5 mps 743 mmHg 85%

Tomorrow, 24 April, Saturday

Time Temperature Precipitation Wind Pressure Humidity
00:00 -2°C° 0.1 mm 5 mps 743 mmHg 88%
01:00 -2°C° 0.1 mm 5 mps 743 mmHg 91%
02:00 -3°C° 0.1 mm 6 mps 743 mmHg 93%
03:00 -3°C° 0.1 mm 6 mps 743 mmHg 90%
04:00 -3°C° 0.1 mm 6 mps 743 mmHg 86%
05:00 -3°C° 0.1 mm 6 mps 743 mmHg 82%
06:00 -3°C° 0 mm 6 mps 743 mmHg 79%
07:00 -3°C° 0 mm 6 mps 744 mmHg 75%
08:00 -2°C° 0 mm 6 mps 744 mmHg 72%
09:00 -1°C° 0.1 mm 6 mps 744 mmHg 67%
10:00 +1°C° 0.1 mm 6 mps 744 mmHg 62%
11:00 +2°C° 0.1 mm 6 mps 744 mmHg 56%
12:00 +3°C° 0.1 mm 6 mps 744 mmHg 52%
13:00 +4°C° 0.1 mm 6 mps 744 mmHg 48%
14:00 +4°C° 0.1 mm 6 mps 744 mmHg 44%
15:00 +4°C° 0.2 mm 6 mps 744 mmHg 49%
16:00 +4°C° 0.2 mm 6 mps 744 mmHg 55%
17:00 +3°C° 0.2 mm 6 mps 744 mmHg 60%
18:00 +2°C° 0.1 mm 5 mps 744 mmHg 66%
19:00 +1°C° 0.1 mm 4 mps 744 mmHg 71%
20:00 0°C° 0.1 mm 3 mps 744 mmHg 76%
21:00 0°C° 0 mm 3 mps 744 mmHg 78%
22:00 -1°C° 0 mm 3 mps 744 mmHg 80%
23:00 -2°C° 0 mm 3 mps 744 mmHg 81%

Day after tomorrow, 25 April, Sunday

Time Temperature Precipitation Wind Pressure Humidity
00:00 -2°C° 0 mm 3 mps 744 mmHg 80%
01:00 -2°C° 0 mm 3 mps 744 mmHg 80%
02:00 -2°C° 0 mm 3 mps 744 mmHg 79%
03:00 -2°C° 0 mm 3 mps 744 mmHg 81%
04:00 -4°C° 0 mm 3 mps 743 mmHg 84%
05:00 -4°C° 0 mm 3 mps 743 mmHg 87%
06:00 -3°C° 0 mm 4 mps 743 mmHg 81%
07:00 -2°C° 0 mm 4 mps 743 mmHg 74%
08:00 -1°C° 0 mm 5 mps 743 mmHg 68%
09:00 0°C° 0.1 mm 5 mps 743 mmHg 63%
10:00 +1°C° 0.1 mm 6 mps 743 mmHg 58%
11:00 +2°C° 0.1 mm 6 mps 743 mmHg 53%
12:00 +3°C° 0.1 mm 6 mps 743 mmHg 51%
13:00 +3°C° 0.1 mm 7 mps 743 mmHg 50%
14:00 +4°C° 0.1 mm 7 mps 743 mmHg 48%
15:00 +4°C° 0.1 mm 6 mps 743 mmHg 50%
16:00 +4°C° 0.1 mm 6 mps 743 mmHg 52%
17:00 +4°C° 0.1 mm 6 mps 743 mmHg 54%
18:00 +2°C° 0 mm 5 mps 743 mmHg 61%
19:00 0°C° 0 mm 4 mps 743 mmHg 67%
20:00 0°C° 0 mm 3 mps 743 mmHg 73%
21:00 -1°C° 0 mm 3 mps 743 mmHg 77%
22:00 -1°C° 0 mm 3 mps 743 mmHg 81%
23:00 -2°C° 0 mm 3 mps 743 mmHg 84%

26 April, Monday

Time Temperature Precipitation Wind Pressure Humidity
00:00 -2°C° 0 mm 3 mps 743 mmHg 85%
01:00 -4°C° 0 mm 3 mps 743 mmHg 86%
02:00 -4°C° 0 mm 3 mps 743 mmHg 87%
03:00 -4°C° 0 mm 3 mps 743 mmHg 87%
04:00 -5°C° 0 mm 3 mps 743 mmHg 88%
05:00 -5°C° 0 mm 3 mps 743 mmHg 89%
06:00 -2°C° 0 mm 3 mps 743 mmHg 82%
07:00 -2°C° 0 mm 4 mps 743 mmHg 76%
08:00 -1°C° 0 mm 4 mps 743 mmHg 69%
09:00 0°C° 0.1 mm 5 mps 743 mmHg 68%
10:00 +1°C° 0.1 mm 5 mps 742 mmHg 67%
11:00 +1°C° 0.1 mm 6 mps 742 mmHg 66%
12:00 +2°C° 0.4 mm 6 mps 742 mmHg 66%
13:00 +2°C° 0.4 mm 6 mps 742 mmHg 66%
14:00 +2°C° 0.4 mm 6 mps 742 mmHg 67%
15:00 +2°C° 0.3 mm 6 mps 741 mmHg 67%
16:00 +2°C° 0.3 mm 5 mps 741 mmHg 67%
17:00 +2°C° 0.3 mm 5 mps 741 mmHg 67%
18:00 +1°C° 0.2 mm 4 mps 741 mmHg 73%
19:00 0°C° 0.2 mm 4 mps 741 mmHg 79%
20:00 0°C° 0.2 mm 3 mps 741 mmHg 85%
21:00 0°C° 0 mm 3 mps 741 mmHg 88%
22:00 0°C° 0 mm 3 mps 741 mmHg 90%
23:00 -1°C° 0 mm 3 mps 741 mmHg 93%

27 April, Tuesday

Time Temperature Precipitation Wind Pressure Humidity
00:00 -1°C° 0 mm 3 mps 741 mmHg 93%
01:00 -1°C° 0 mm 3 mps 741 mmHg 93%
02:00 -2°C° 0 mm 3 mps 741 mmHg 94%
03:00 -2°C° 0 mm 3 mps 741 mmHg 94%
04:00 -2°C° 0 mm 3 mps 740 mmHg 95%
05:00 -4°C° 0 mm 3 mps 740 mmHg 95%
06:00 -2°C° 0 mm 3 mps 740 mmHg 92%
07:00 -1°C° 0 mm 4 mps 741 mmHg 88%
08:00 0°C° 0 mm 4 mps 741 mmHg 84%
09:00 0°C° 0.1 mm 4 mps 741 mmHg 85%
10:00 +1°C° 0.1 mm 4 mps 741 mmHg 86%
11:00 +1°C° 0.1 mm 4 mps 741 mmHg 87%
12:00 +1°C° 0 mm 4 mps 741 mmHg 90%
13:00 +1°C° 0 mm 4 mps 742 mmHg 92%
14:00 +1°C° 0 mm 4 mps 742 mmHg 94%
15:00 +2°C° 0 mm 3 mps 742 mmHg 92%
16:00 +3°C° 0 mm 3 mps 742 mmHg 90%
17:00 +3°C° 0 mm 3 mps 742 mmHg 88%
18:00 +4°C° 0 mm 2 mps 742 mmHg 88%
19:00 +3°C° 0 mm 2 mps 742 mmHg 88%
20:00 +3°C° 0 mm 2 mps 742 mmHg 89%
21:00 +3°C° 0 mm 2 mps 742 mmHg 89%
22:00 +2°C° 0 mm 2 mps 742 mmHg 90%
23:00 +2°C° 0 mm 2 mps 742 mmHg 91%

28 April, Wednesday

Time Temperature Precipitation Wind Pressure Humidity
00:00 +2°C° 0 mm 2 mps 742 mmHg 91%
01:00 +1°C° 0 mm 2 mps 742 mmHg 92%
02:00 +1°C° 0 mm 2 mps 742 mmHg 93%
03:00 +1°C° 0 mm 2 mps 742 mmHg 93%
04:00 +1°C° 0 mm 2 mps 742 mmHg 93%
05:00 -1°C° 0 mm 2 mps 742 mmHg 94%
06:00 +2°C° 0 mm 2 mps 742 mmHg 88%
07:00 +2°C° 0 mm 3 mps 741 mmHg 83%
08:00 +4°C° 0 mm 3 mps 741 mmHg 78%
09:00 +5°C° 0 mm 4 mps 741 mmHg 73%
10:00 +6°C° 0 mm 4 mps 741 mmHg 69%
11:00 +7°C° 0 mm 5 mps 740 mmHg 64%
12:00 +7°C° 0 mm 5 mps 740 mmHg 65%
13:00 +8°C° 0 mm 5 mps 739 mmHg 65%
14:00 +8°C° 0 mm 6 mps 738 mmHg 65%
15:00 +7°C° 1 mm 6 mps 738 mmHg 74%
16:00 +6°C° 1 mm 5 mps 737 mmHg 83%
17:00 +5°C° 1 mm 5 mps 737 mmHg 92%
18:00 +5°C° 1.6 mm 5 mps 736 mmHg 93%
19:00 +3°C° 1.6 mm 5 mps 735 mmHg 94%
20:00 +3°C° 1.6 mm 5 mps 735 mmHg 95%
21:00 +3°C° 1.8 mm 5 mps 734 mmHg 96%
22:00 +5°C° 1.8 mm 5 mps 733 mmHg 96%
23:00 +5°C° 1.8 mm 4 mps 732 mmHg 97%
Show more